Voltar ao catálogo

COSMOS 2251 DEB

AtivoLEO
NORAD 34756·DEBRIS·🇷🇺 Russia

Lançado Jun 16, 1993 de Plesetsk Cosmodrome

Loading…

Próximas Passagens (próximas 24 horas)

TLE

AtualizadoSource: Space-Track

Época: Sep 13, 2026, 07:26 UTC

1 34756U 93036AAA 26256.30997557  .00001267  00000-0  10178-2 0  9997
2 34756  74.0063  12.5715 0339730 191.0645 168.2870 13.67881720871752

Acompanhe COSMOS 2251 DEB em tempo real com AllMySat

Download on the App Store